Temperature
17 17 17 17 17 17 17 18 18 18 18 17 17 17 17 17 16 16 16 16 16 16 15 15 15 15 15 15 15 15 15 15 14 14 14 14 14 14
16 17 17 17 17 17 17 17 17 17 17 17 17 17 17 16 16 16 16 15 15 15 15 15 15 15 15 15 14 14 14 14 14 14 14 14 14 14
16 16 16 16 16 17 17 17 17 17 17 17 16 16 16 16 16 15 15 15 15 15 14 14 14 14 14 14 14 14 13 13 13 13 13 13 13 13
16 16 16 16 16 16 16 16 16 16 16 16 16 16 15 15 15 15 14 14 14 14 14 14 13 13 13 13 13 13 13 13 12 12 12 12 12 12
16 16 16 16 16 16 16 16 16 15 15 15 15 15 15 14 14 14 14 13 13 13 13 13 13 12 12 12 12 12 12 11 11 11 11 11 11 11
15 15 15 15 15 15 15 15 15 15 15 15 14 14 14 14 13 13 13 13 13 12 12 12 12 11 11 11 11 11 11 10 10 10 10 10 10 10
15 15 15 15 15 15 14 14 14 14 14 14 13 13 13 13 13 12 12 12 12 11 11 11 11 11 10 10 10 10 10 9 9 9 9 9 9 9
15 14 14 14 14 14 14 14 14 13 13 13 13 12 12 12 12 11 11 11 11 11 10 10 10 10 10 10 9 9 9 9 8 8 8 8 8 8
14 14 14 13 13 13 13 13 13 13 12 12 12 12 11 11 11 10 10 10 10 9 9 9 9 9 9 9 8 8 8 8 8 7 7 7 7 7
13 13 13 13 13 13 12 12 12 12 11 11 11 11 10 10 10 9 9 9 9 9 8 8 8 8 8 8 8 8 7 7 7 7 7 6 6 6
12 12 12 12 12 12 11 11 11 10 10 10 10 9 9 9 9 8 8 8 8 8 7 7 7 7 7 7 7 7 7 6 6 6 6 6 6 5
12 11 11 11 11 11 10 10 10 9 9 9 9 8 8 8 7 7 7 7 6 6 6 6 6 5 6 6 6 6 6 6 6 5 5 5 5 5
11 11 10 10 10 10 9 9 9 8 8 8 8 7 7 7 6 6 6 6 6 6 5 5 5 5 5 5 5 5 5 5 5 5 5 5 5 5
10 10 9 9 9 9 9 8 8 7 7 7 7 6 6 6 6 6 5 5 5 5 5 5 5 4 4 4 4 4 4 4 4 4 4 4 4 4
9 9 8 8 8 7 7 7 7 6 6 6 6 6 5 5 5 5 5 5 5 5 5 5 4 4 4 4 4 4 4 4 4 4 4 4 4 4
8 8 7 7 7 6 6 6 6 6 6 5 5 5 5 5 5 5 4 4 4 4 4 4 4 4 4 4 4 4 4 3 3 3 3 3 3 3
7 7 7 6 6 6 6 5 5 5 5 5 5 5 4 4 4 4 4 4 4 4 4 4 3 3 3 3 3 3 3 3 3 3 3 3 3 3
7 6 6 6 6 6 6 5 5 5 4 4 4 4 4 4 4 4 4 4 3 3 3 3 3 3 3 3 3 3 3 3 3 3 3 2 3 3
6 6 6 6 5 5 5 5 5 4 4 4 4 4 4 4 4 3 3 3 3 3 3 3 3 2 2 2 2 3 3 3 2 2 2 2 2 2
6 6 5 5 5 5 5 5 4 4 4 4 4 3 3 3 3 3 3 3 3 3 3 3 2 2 2 2 2 2 3 2 2 2 2 2 2 2
6 5 5 5 5 5 4 4 4 4 4 3 3 3 3 3 3 3 3 2 2 2 2 2 2 2 2 2 2 2 2 2 2 2 2 2 2 2
5 5 5 5 4 4 4 4 4 3 3 3 3 2 2 2 2 2 2 2 2 2 2 2 2 2 2 2 2 2 2 2 2 2 2 2 2 2
5 5 5 4 4 4 4 3 3 3 3 2 2 2 2 2 2 2 2 2 2 2 2 2 2 2 2 2 2 2 2 2 2 2 2 2 2 2
Wind_Speed
4 4 3 2 1 1 1 0 0 1 2 2 2 3 6 9 9 7 8 9 8 7 5 3 2 1 2 2 3 4 5 5 6 6 7 8 9 10
3 3 3 2 2 1 0 1 1 1 1 0 1 3 4 6 7 5 6 9 8 8 6 4 2 1 0 1 2 3 4 5 6 7 8 8 9 10
4 4 4 2 1 1 1 1 1 1 0 1 2 3 3 4 3 2 3 7 6 7 7 5 4 2 1 1 1 2 3 4 5 6 7 8 9 10
5 4 4 3 2 1 1 1 1 1 1 0 1 2 2 2 2 1 2 2 2 6 7 6 5 3 2 2 2 3 4 5 6 7 8 9 10 10
4 4 3 3 2 1 0 1 2 2 1 1 0 1 2 2 2 2 3 3 3 3 5 5 4 3 3 3 3 4 5 5 6 6 8 9 10 10
4 4 3 3 2 2 1 1 2 2 2 1 1 2 3 3 3 2 2 3 3 4 5 3 1 3 3 4 5 5 4 4 4 5 7 8 9 10
6 6 6 8 9 6 4 3 3 2 2 2 2 3 4 4 4 3 3 3 4 4 3 3 1 1 2 5 5 4 2 1 2 4 6 8 10 11
7 6 7 9 11 13 15 14 9 5 3 3 3 4 5 5 4 4 4 4 2 3 4 4 3 1 0 2 5 4 3 2 3 5 7 9 11 13
6 5 5 7 8 9 12 15 15 15 11 7 6 5 4 4 4 4 4 4 3 3 3 3 3 3 6 2 3 5 5 6 8 9 10 12 14 16
6 6 7 6 6 7 9 10 10 10 9 8 7 6 5 4 4 3 4 4 3 4 5 3 4 4 7 7 6 6 7 8 11 13 14 15 17 18
8 8 8 8 10 10 10 10 9 7 11 12 10 8 7 7 7 4 5 5 4 4 5 4 4 5 5 4 6 9 12 13 15 16 16 17 18 17
9 10 12 11 12 11 9 8 8 5 4 4 3 3 2 4 6 5 4 5 5 3 5 5 5 5 5 4 7 11 12 14 15 16 16 16 16 12
8 8 8 13 14 13 10 8 7 4 2 2 2 2 3 3 5 6 5 3 3 3 4 4 4 4 4 6 6 7 9 10 11 12 13 13 14 12
9 8 8 12 13 12 9 8 8 5 2 3 4 4 4 4 3 4 4 4 4 6 7 4 3 4 5 7 7 6 7 10 9 7 10 13 14 15
10 12 11 11 10 8 8 7 5 3 3 4 4 4 3 2 3 3 4 5 7 8 5 4 3 3 4 6 7 7 7 6 6 5 6 6 7 9
10 10 10 8 5 4 3 3 2 4 4 4 4 3 3 3 3 3 4 4 4 3 5 7 7 4 5 7 7 7 7 6 6 6 5 6 10 12
7 5 4 4 3 3 3 4 3 4 4 3 3 3 4 4 3 3 3 4 4 5 5 4 9 10 7 6 6 6 7 6 6 6 7 8 7 7
6 5 5 4 4 4 4 3 3 4 3 3 3 4 4 4 4 4 4 4 5 5 5 5 6 6 6 6 5 7 6 6 7 7 7 8 7 6
4 5 5 4 4 3 3 3 4 3 3 3 3 4 4 5 4 4 4 5 5 6 6 6 5 6 8 10 8 10 7 7 7 7 7 7 8 8
3 4 4 4 3 4 4 4 3 3 3 3 4 4 5 5 5 5 5 5 6 6 6 5 5 5 7 8 9 9 12 7 6 7 7 7 7 9
4 4 4 4 5 4 4 3 3 3 4 4 4 4 5 5 5 5 5 7 6 5 6 6 6 9 6 6 7 7 7 13 12 8 7 8 8 7
4 5 5 5 5 4 4 3 3 4 4 5 5 5 5 5 6 6 6 6 6 6 7 6 7 7 6 8 9 9 8 9 12 15 12 10 6 7
5 5 5 4 4 3 3 3 4 5 5 5 5 5 6 5 5 5 6 6 6 7 7 7 7 7 7 8 8 8 11 10 8 7 6 11 14 17
Wind_Direction
201 203 221 249 248 264 286 326 174 241 229 194 153 123 118 109 134 145 140 161 171 175 176 178 192 241 291 305 312 314 313 313 314 316 316 315 314 313
197 193 198 252 252 245 257 327 343 280 250 187 115 96 80 113 118 120 132 153 168 172 168 164 159 171 282 323 328 332 337 337 333 332 331 329 327 323
204 190 183 224 322 333 354 340 341 16 124 39 71 83 78 74 85 70 145 143 154 171 170 164 156 148 132 44 6 14 12 3 357 353 349 344 339 333
195 188 185 190 162 352 347 2 16 48 74 65 73 81 81 99 83 339 30 100 145 172 174 169 164 155 132 109 80 69 54 36 22 11 1 354 347 341
169 173 171 159 166 153 92 19 26 41 68 103 57 82 74 54 54 18 29 29 11 120 157 162 168 163 158 138 111 98 75 54 33 15 2 353 347 342
116 114 110 118 126 138 115 58 41 28 39 53 25 51 65 40 51 15 13 15 3 20 38 45 128 152 142 145 132 121 96 65 33 11 357 347 341 336
105 99 93 92 81 77 86 67 63 57 52 45 51 53 43 32 21 354 8 12 11 26 15 354 4 131 142 148 142 142 128 59 5 347 338 332 329 326
120 112 104 93 89 83 78 71 64 68 62 65 66 65 47 29 14 12 15 6 355 359 351 330 353 346 322 166 174 176 204 258 294 305 309 310 311 312
121 120 115 108 102 99 87 76 64 59 63 75 73 60 55 26 10 13 4 347 316 317 329 321 347 354 350 355 211 229 249 268 282 288 293 297 300 302
95 97 97 87 91 99 99 86 72 56 61 72 79 72 69 33 15 4 343 341 336 355 8 343 353 345 335 323 276 273 278 282 288 288 288 291 296 301
82 78 88 86 75 87 97 95 90 81 77 86 91 89 74 47 26 20 11 3 353 354 15 359 346 336 321 314 331 320 308 295 289 289 290 292 295 299
86 76 71 79 75 74 88 93 89 78 73 80 80 73 62 45 41 35 21 3 347 345 12 357 345 345 326 334 346 326 313 308 302 301 302 300 299 296
100 90 79 77 73 69 73 79 78 59 42 45 84 82 61 52 47 36 34 6 345 329 333 342 332 335 320 315 318 321 327 326 322 319 315 310 306 297
101 98 92 84 77 73 70 61 44 26 20 43 49 45 42 42 23 0 350 320 288 271 285 299 305 317 317 315 316 321 324 323 321 320 327 328 319 309
98 103 101 93 85 77 73 56 39 32 37 44 41 39 32 11 341 339 337 327 310 309 325 319 301 310 310 307 309 314 317 316 321 327 328 325 315 312
105 104 97 89 84 84 82 72 77 57 41 38 28 18 4 1 2 359 347 333 326 335 346 340 330 313 306 302 304 309 314 313 320 323 322 313 311 313
115 115 117 119 121 114 96 75 64 58 42 26 19 9 5 1 352 353 345 338 349 347 341 337 335 322 304 300 311 316 316 318 320 322 320 313 307 309
108 117 111 103 96 88 84 83 76 60 30 14 19 13 2 350 349 354 354 357 353 344 337 332 332 331 328 323 326 324 322 320 317 313 311 310 307 310
102 101 97 90 83 79 71 67 70 69 28 12 23 15 359 348 354 355 353 357 348 336 330 329 337 342 334 328 323 322 312 309 308 308 308 309 309 310
108 105 105 99 85 71 64 55 55 57 29 10 28 14 359 352 356 353 349 356 337 326 328 332 342 340 321 310 306 306 308 304 305 305 306 306 302 302
106 98 96 90 81 73 61 46 46 55 30 9 28 12 1 354 352 344 341 343 332 331 336 332 325 315 296 299 307 308 310 315 309 296 298 303 307 309
99 93 85 81 74 67 59 38 40 52 33 23 23 8 359 354 346 342 343 340 335 334 331 325 321 320 318 317 318 316 315 315 313 311 298 286 294 306
87 87 90 89 85 78 58 33 42 46 37 23 12 360 353 348 340 340 341 338 333 332 332 330 329 325 322 319 319 318 318 319 318 317 313 305 296 289
Height
1562 1564 1566 1567 1569 1570 1571 1572 1574 1574 1574 1575 1575 1576 1576 1576 1576 1576 1576 1577 1576 1576 1576 1575 1575 1575 1574 1574 1573 1573 1572 1571 1571 1570 1569 1568 1567 1566
1559 1561 1563 1565 1567 1568 1569 1570 1571 1572 1572 1573 1573 1574 1574 1574 1574 1574 1574 1574 1574 1573 1573 1572 1572 1571 1570 1570 1569 1568 1568 1567 1566 1565 1564 1563 1562 1561
1556 1558 1560 1562 1564 1565 1566 1567 1568 1569 1570 1571 1571 1572 1572 1572 1572 1572 1572 1571 1570 1570 1569 1569 1568 1568 1567 1566 1565 1564 1563 1562 1561 1560 1559 1558 1556 1555
1553 1555 1557 1559 1560 1562 1563 1565 1566 1567 1568 1568 1569 1569 1569 1569 1570 1570 1569 1568 1568 1567 1566 1566 1565 1564 1563 1562 1561 1559 1558 1557 1556 1555 1553 1552 1551 1549
1550 1552 1554 1556 1557 1559 1560 1562 1563 1564 1565 1565 1566 1566 1566 1566 1567 1567 1567 1566 1565 1564 1563 1562 1562 1560 1559 1558 1557 1556 1554 1553 1551 1550 1548 1546 1545 1543
1547 1549 1551 1553 1554 1556 1557 1558 1560 1561 1562 1563 1563 1563 1563 1563 1563 1564 1563 1563 1563 1562 1560 1560 1558 1557 1556 1555 1554 1552 1551 1549 1547 1545 1543 1541 1539 1537
1544 1547 1548 1550 1551 1553 1554 1555 1557 1558 1559 1560 1560 1560 1560 1560 1560 1560 1560 1559 1559 1559 1558 1557 1556 1554 1553 1551 1550 1549 1547 1545 1543 1541 1538 1536 1533 1531
1542 1544 1546 1547 1549 1550 1552 1553 1554 1555 1556 1557 1557 1557 1557 1558 1558 1558 1557 1557 1556 1556 1555 1555 1554 1552 1550 1549 1547 1545 1543 1541 1539 1537 1534 1531 1529 1526
1540 1542 1543 1545 1546 1548 1549 1550 1551 1553 1554 1555 1555 1555 1555 1555 1556 1555 1555 1554 1554 1553 1552 1551 1551 1549 1548 1545 1544 1542 1540 1538 1535 1533 1530 1527 1524 1521
1538 1540 1542 1544 1545 1546 1547 1548 1549 1551 1552 1553 1553 1553 1554 1554 1554 1553 1553 1552 1552 1551 1550 1549 1547 1546 1544 1543 1541 1539 1537 1534 1532 1529 1526 1523 1520 1517
1537 1539 1541 1542 1544 1545 1546 1547 1548 1550 1551 1552 1552 1552 1552 1552 1552 1551 1550 1550 1549 1548 1547 1546 1544 1542 1540 1539 1538 1535 1533 1531 1528 1525 1522 1519 1516 1513
1536 1538 1540 1542 1543 1544 1546 1547 1548 1550 1551 1551 1552 1552 1551 1551 1551 1550 1549 1549 1547 1547 1545 1544 1542 1539 1537 1536 1534 1532 1530 1527 1525 1522 1519 1516 1512 1509
1535 1537 1540 1542 1543 1545 1546 1547 1549 1550 1551 1551 1552 1552 1552 1551 1551 1550 1549 1548 1547 1545 1544 1542 1540 1538 1536 1533 1531 1529 1527 1524 1521 1518 1515 1512 1509 1506
1536 1538 1540 1542 1543 1545 1546 1548 1549 1550 1551 1552 1553 1552 1552 1551 1551 1550 1548 1547 1546 1545 1543 1541 1539 1536 1534 1530 1528 1525 1523 1521 1518 1515 1511 1508 1505 1502
1537 1539 1541 1543 1544 1546 1547 1549 1549 1551 1552 1552 1553 1553 1552 1551 1550 1549 1547 1546 1545 1543 1542 1540 1537 1534 1532 1529 1526 1522 1520 1517 1514 1511 1508 1504 1501 1497
1538 1540 1543 1544 1546 1547 1548 1550 1550 1551 1552 1553 1553 1553 1552 1551 1550 1548 1547 1545 1543 1542 1540 1538 1536 1533 1529 1527 1524 1520 1517 1514 1511 1508 1504 1500 1497 1494
1539 1542 1544 1546 1548 1549 1550 1551 1552 1553 1553 1553 1553 1553 1552 1551 1550 1548 1546 1544 1543 1541 1538 1536 1534 1531 1528 1525 1521 1518 1515 1511 1508 1504 1500 1496 1493 1490
1541 1544 1546 1549 1550 1552 1553 1553 1553 1553 1554 1554 1553 1553 1552 1551 1549 1548 1546 1544 1542 1539 1537 1534 1531 1528 1525 1522 1521 1516 1512 1508 1504 1501 1497 1493 1489 1486
1544 1546 1549 1551 1552 1553 1554 1554 1555 1554 1554 1554 1553 1552 1551 1550 1549 1547 1545 1543 1541 1538 1536 1533 1530 1526 1523 1519 1516 1514 1510 1505 1501 1497 1494 1490 1486 1482
1548 1549 1551 1553 1554 1555 1555 1556 1556 1555 1555 1554 1553 1552 1551 1550 1548 1546 1545 1542 1540 1537 1535 1532 1529 1526 1522 1518 1514 1510 1508 1503 1499 1494 1490 1486 1482 1479
1551 1552 1553 1554 1555 1555 1556 1556 1556 1556 1555 1554 1553 1552 1551 1549 1547 1546 1544 1541 1539 1536 1533 1531 1528 1524 1520 1516 1512 1508 1505 1501 1497 1492 1487 1483 1478 1474
1553 1554 1555 1555 1556 1556 1556 1556 1556 1556 1555 1554 1552 1551 1550 1548 1547 1545 1543 1540 1538 1535 1532 1529 1525 1522 1518 1514 1510 1505 1501 1497 1494 1490 1486 1482 1477 1472
1554 1555 1555 1556 1556 1556 1556 1557 1556 1555 1554 1553 1552 1550 1549 1547 1545 1544 1542 1539 1536 1534 1530 1527 1523 1519 1516 1512 1508 1503 1499 1495 1490 1486 1483 1479 1476 1471